Change the Weather History Date:

Tuesday, October 8, 2013

  Actual Average (KRXE) Record (KRXE)
Temperature  
Mean Temperature 38 °F 48 °F  
Max Temperature 50 °F 62 °F 75 °F (2004)
Min Temperature 27 °F 33 °F 22 °F (2000)
Degree Days  
Heating Degree Days 26 17  
Month to date heating degree days 129  
Since 1 July heating degree days 487  
Cooling Degree Days 0 0  
Month to date cooling degree days 0  
Year to date cooling degree days 208  
Moisture  
Dew Point 25 °F    
Average Humidity 55    
Maximum Humidity 84    
Minimum Humidity 35    
Precipitation  
Precipitation 0.00 in 0.03 in 0.30 in (1981)
Month to date precipitation 0.27  
Year to date precipitation 10.15  
Sea Level Pressure  
Sea Level Pressure 29.78 in    
Wind  
Wind Speed 8 mph (South)    
Max Wind Speed 16 mph    
Max Gust Speed -    
Visibility 10 miles    
Events      
T = Trace of Precipitation, MM = Missing Value Source: NWS Daily Summary

Daily Weather History Graph

Daily Weather History Graph

Search for Another Location

Airport or City:

Trip Planner

Search our weather history database for the weather conditions in past years. The results will help you decide how hot, cold, wet, or windy it might be!

Date:

Astronomy

Oct. 08, 2013 Rise Set
Actual Time 7:30 AM MDT 6:52 PM MDT
Civil Twilight 7:01 AM MDT 7:21 PM MDT
Nautical Twilight 6:28 AM MDT 7:54 PM MDT
Astronomical Twilight 5:55 AM MDT 8:27 PM MDT
Moon 11:35 AM MDT (10/8) 9:24 PM MDT (10/8)
Length of Visible Light 12h 19m
Length of Day
11h 21m
Waxing Crescent, 16% of the Moon is Illuminated
Oct 8
Waxing Crescent
Oct 11
First Quarter
Oct 18
Full
Oct 26
Last Quarter
Nov 3
New

Hourly Weather History & Observations

Time (MDT) Temp. Windchill Dew Point Humidity Pressure Visibility Wind Dir Wind Speed Gust Speed Precip Events Conditions
12:56 AM 37.9 °F 32.1 °F 30.0 °F 73% 29.76 in 10.0 mi ESE 8.1 mph - N/A   Clear
1:56 AM 38.8 °F 33.8 °F 29.1 °F 68% 29.74 in 10.0 mi East 6.9 mph - N/A   Clear
2:56 AM 37.9 °F 32.7 °F 29.1 °F 71% 29.74 in 10.0 mi ENE 6.9 mph - N/A   Clear
3:56 AM 38.8 °F 34.6 °F 27.1 °F 63% 29.72 in 10.0 mi SE 5.8 mph - N/A   Clear
4:56 AM 41.9 °F 40.0 °F 27.1 °F 56% 29.72 in 10.0 mi South 3.5 mph - N/A   Clear
5:56 AM 45.0 °F 40.1 °F 25.2 °F 46% 29.72 in 10.0 mi South 9.2 mph - N/A   Clear
6:56 AM 43.9 °F 38.8 °F 24.1 °F 46% 29.73 in 10.0 mi South 9.2 mph - N/A   Clear
7:56 AM 43.9 °F 38.8 °F 24.1 °F 46% 29.76 in 10.0 mi South 9.2 mph - N/A   Clear
8:56 AM 46.9 °F - 25.2 °F 43% 29.76 in 10.0 mi SSE 9.2 mph - N/A   Clear
9:56 AM 48.9 °F - 23.0 °F 36% 29.76 in 10.0 mi South 9.2 mph - N/A   Overcast
10:56 AM 48.9 °F - 25.2 °F 40% 29.79 in 10.0 mi WSW 10.4 mph - N/A   Overcast
11:56 AM 47.8 °F - 25.2 °F 41% 29.81 in 9.0 mi SW 8.1 mph - N/A   Mostly Cloudy
12:56 PM 50.9 °F - 27.1 °F 40% 29.79 in 9.0 mi South 16.1 mph - N/A   Mostly Cloudy
1:56 PM 48.9 °F - 26.1 °F 41% 29.79 in 9.0 mi WSW 11.5 mph - N/A   Mostly Cloudy
2:56 PM 48.9 °F - 24.1 °F 38% 29.79 in 9.0 mi SW 9.2 mph - N/A   Mostly Cloudy
3:56 PM 48.9 °F - 24.1 °F 38% 29.78 in 8.0 mi South 11.5 mph - N/A   Mostly Cloudy
4:56 PM 47.8 °F - 24.1 °F 39% 29.77 in 10.0 mi SE 4.6 mph - N/A   Clear
5:56 PM 50.0 °F - 23.0 °F 35% 29.76 in 10.0 mi West 6.9 mph - N/A   Partly Cloudy
6:56 PM 43.0 °F 38.8 °F 25.2 °F 49% 29.80 in 10.0 mi West 6.9 mph - N/A   Clear
7:56 PM 34.0 °F 28.0 °F 26.1 °F 73% 29.86 in 10.0 mi NNE 6.9 mph - N/A   Clear
8:56 PM 31.1 °F 23.7 °F 26.1 °F 82% 29.86 in 10.0 mi NE 8.1 mph - N/A   Clear
9:56 PM 30.0 °F - 25.2 °F 82% 29.86 in 10.0 mi Calm Calm - N/A   Clear
10:56 PM 27.1 °F 19.7 °F 23.0 °F 84% 29.87 in 10.0 mi SE 6.9 mph - N/A   Clear
11:56 PM 27.1 °F - 22.1 °F 81% 29.87 in 10.0 mi Calm Calm - N/A   Clear